Location: Partizánske
(48.6285°N, 18.3769°E)
Time: 08:44:37
(UTC+02:00)

ISS - Visible Passes

Search period start: 16 April 2024 00:00
Search period end: 26 April 2024 00:00
Orbit: 413 x 419 km, 51.6° (Epoch: 15 April)

Date Brightness Start Highest point End Pass type
(mag) Time Alt. Az. Time Alt. Az. Time Alt. Az.
21 Apr -1.1 04:47:32 10° SSE 04:49:08 13° SE 04:50:44 10° ESE visible
23 Apr -2.2 04:45:01 10° SSW 04:47:55 28° SE 04:50:50 10° E visible
24 Apr -1.7 03:57:55 15° S 03:59:16 18° SE 04:01:39 10° E visible
25 Apr -1.1 03:10:55 12° SE 03:10:55 12° SE 03:11:54 10° ESE visible
25 Apr -3.5 04:43:47 12° SW 04:46:45 58° SSE 04:50:03 10° ENE visible
